Regional Weather Roundup
Issued by NWS

Home | Current Version | Previous Version | Text Only | Print | Product List | Glossary Off
Versions: 1 2 3 4 5 6 7 8 9 10 11 12 13 14 15 16 17 18 19 20 21 22 23 24 25 26 27 28 29 30 31 32 33 34 35 36 37 38 39 40 41 42 43 44 45 46 47 48 49 50

000
ASUS43 KDMX 012107
RWRIA

WEATHER ROUNDUP FOR IOWA
NATIONAL WEATHER SERVICE DES MOINES IA
300 PM CST SUN FEB 01 2015

NOTE: "FAIR" INDICATES FEW OR NO CLOUDS BELOW 12,000 FEET WITH NO
SIGNIFICANT WEATHER AND/OR OBSTRUCTIONS TO VISIBILITY.

* - THESE STATIONS ARE NOT NWS STATIONS...THUS NOT UNDER NWS
QUALITY CONTROL.  THEY ALSO DO NOT REPORT WEATHER SUCH
AS PRECIPITATION OR FOG.

IAZ001>003-012>014-020>022-031>034-043>046-012200-
   NORTHWEST IOWA

CITY           SKY/WX    TMP DP  RH WIND       PRES   REMARKS
CARROLL *      SNOW      16  12  86 N32G43    30.06R VSB 1/4 WCI  -5
CHEROKEE *     LGT SNOW  12   9  85 N20G28    30.16R WCI  -6
DENISON *      LGT SNOW  16  12  86 N18G30    30.08R VSB 1   WCI  -1
LE MARS *      LGT SNOW  10   7  85 N22       30.22R WCI  -9
ORANGE CITY *    N/A     12   9  85 N16G25    30.19R WCI  -4
SHELDON *      SNOW      12   9  85 N26G33    30.17R VSB 1/2 WCI  -8
SIOUX CITY     LGT SNOW  12   6  77 N29G36    30.21R VSB 1   WCI  -9
SPENCER        LGT SNOW  14   7  73 N26G33    30.15R WCI  -6
STORM LAKE *   SNOW      12   9  85 N29G35    30.10R VSB 1/2 WCI  -9
$$

IAZ055>058-069>071-079>083-090>094-012200-
   SOUTHWEST IOWA

CITY           SKY/WX    TMP DP  RH WIND       PRES   REMARKS
ATLANTIC *     LGT SNOW  18  12  79 N26G36    30.03R VSB 3/4 WCI  -1
AUDUBON *      LGT SNOW  16  12  86 N20G29    30.04R VSB 1   WCI  -1
CLARINDA *     LGT SNOW  19  16  86 N26G33    30.02R WCI   1
COUNCIL BLFS * LGT SNOW  16  12  86 N21G33    30.07R WCI  -2
CRESTON *      LGT SNOW  18  16  93 N23G35    29.95R VSB 3/4 WCI   0
HARLAN  *      LGT SNOW  18  16  93 N20G31    30.11R WCI   1
LAMONI         LGT SNOW  20  16  84 N28       29.89R VSB 1   WCI   2
RED OAK *      SNOW      18  16  93 N29G37    30.04R VSB 1/2 WCI  -2
SHENANDOAH *   LGT SNOW  19  16  86 N22G33    30.06R WCI   3
$$

IAZ047>049-059>061-072>074-084-012200-
   CENTRAL IOWA

CITY           SKY/WX    TMP DP  RH WIND       PRES   REMARKS
AMES           HAZE      17  12  80 N23G29    30.00R VSB 3/4 WCI  -1
ANKENY *       LGT SNOW  18  14  86 N20G30    29.98R VSB 3/4 WCI   1
CHARITON *     LGT SNOW  19  16  86 N21G29    29.91R VSB 3/4 WCI   3
DES MOINES     SNOW      20  14  77 N20G30    29.97R VSB 1/2 WCI   4
KNOXVILLE *    LGT SNOW  19  16  86 N16G26    29.90R VSB 3/4 WCI   5
MARSHALLTOWN   FOG       17  13  84 N26G37    29.95R VSB 1/4 WCI  -2
PELLA *        CLOUDY    20  17  87 N12G18    29.92R WCI   9
PERRY *        LGT SNOW  19  16  86 N23       30.02R VSB 3/4 WCI   2
$$

IAZ004>006-015-016-023>025-035-036-012200-
   NORTH CENTRAL IOWA

CITY           SKY/WX    TMP DP  RH WIND       PRES   REMARKS
ALGONA *       SNOW      14  10  85 N17G29    30.11R VSB 1/2 WCI  -3
CLARION *      SNOW      14  12  92 N26       30.05R VSB 1/2 WCI  -6
ESTHERVILLE    CLOUDY    13   7  77 N26G32    30.14R HAZE    WCI  -7
FORT DODGE *   CLOUDY    16   9  73 CALM      30.08R VSB 1
MASON CITY     LGT SNOW  13   8  81 N28G33    30.07R WCI  -8
FOREST CITY *  LGT SNOW  16   9  73 N18G26    30.08R WCI  -1
IOWA FALLS *   LGT SNOW  16  12  86 N21G30    30.01R VSB 1   WCI  -2
$$

IAZ007>011-017>019-026>030-037>042-050>054-066-012200-
   NORTHEAST IOWA

CITY           SKY/WX    TMP DP  RH WIND       PRES   REMARKS
CEDAR RAPIDS   SNOW      18  16  92 N26G35    29.87R VSB 1/4 WCI  -1
CHARLES CITY * LGT SNOW  14  10  85 N22G30    30.03R WCI  -4
CLINTON *      CLOUDY    19  18  93 NE24G33   29.83R VSB 1/4 WCI   2
DECORAH *      LGT SNOW  14   9  79 N17G31    30.00R WCI  -3
DUBUQUE        FOG       16  12  84 NE25G36   29.86R VSB 1/2 WCI  -3
MONTICELLO *   SNOW      18  14  86 N24G33    29.89R VSB 1/2 WCI   0
OELWEIN *      SNOW      16  12  86 N24G32    29.95R VSB 1/2 WCI  -3
WATERLOO       LGT SNOW  16  12  84 N24G31    29.98R VSB 1   WCI  -2
$$

IAZ064-065-067-068-078-012200-
   EAST CENTRAL IOWA

CITY           SKY/WX    TMP DP  RH WIND       PRES   REMARKS
DAVENPORT      MIX PCPN  21  17  84 NE25      29.80R VSB 1/4 WCI   4
IOWA CITY      HVY SNOW  20  16  84 N22G33    29.87R VSB 1/4 WCI   3
MT. PLEASANT * LGT SNOW  23  21  93 N21G29    29.78R WCI   8
MUSCATINE *    SNOW      23  19  86 NE23G30   29.81R VSB 1/2 WCI   7
QUAD CITIES    SNOW      24  20  84 NE14G24   29.78R VSB 1/2 WCI  12
$$

IAZ062-063-075>077-085>089-095>099-012200-
   SOUTHEAST IOWA

CITY           SKY/WX    TMP DP  RH WIND       PRES   REMARKS
BURLINGTON     LGT SNOW  26  23  88 NE23G30   29.74R VSB 3/4 WCI  11
FAIRFIELD *    SNOW      21  18  86 N25G32    29.83R VSB 1/4 WCI   4
FORT MADISON * LGT SNOW  27  25  93 N16G24    29.75R VSB 3/4 WCI  14
KEOKUK *       MIX PCPN  28  27  93 N16G25    29.73R VSB 3/4 WCI  17
OSKALOOSA *    SNOW      19  18  93 N17G24    29.87R VSB 1/2 WCI   4
CENTERVILLE *  MIX PCPN  23  21  93 N15       29.85R WCI  10
OTTUMWA        SNOW      21  17  84 N20G31    29.86R VSB 1/2 WCI   6
WASHINGTON *   SNOW      21  21 100 N23G31    29.83R VSB 1/2 WCI   5
$$

ABBREVIATIONS USED IN REMARKS
   TC - TEMPERATURES IN CELSIUS
  WCI - WIND CHILL INDEX
   HX - HEAT INDEX
  VSB - VISIBILITY
$$




USA.gov is the U.S. government's official web portal to all federal, state and local government web resources and services.